User: anonymous   Login
Location: Unspecified
(0.0000°N, 0.0000°E)
Time: 23:03:52
(UTC+00:00)
Language:

PERSEUS M2 - Orbit

View from above orbital plane
View from above orbital plane
View from above satellite
View from above satellite

Ground track
Ground track

The orbit data is extracted from the following two-line orbital elements,

1 40037U 14033AD  23083.55874113  .00004568  00000-0  50246-3 0  9998
2 40037  97.9064   9.4408 0012514 235.4117 124.5919 14.88042837474766
Epoch (UTC): 24 March 2023 13:24:35
Eccentricity: 0.0012514
inclination: 97.9064°
perigee height: 595 km
apogee height: 613 km
right ascension of ascending node: 9.4408°
argument of perigee: 235.4117°
revolutions per day: 14.88042837
mean anomaly at epoch: 124.5919°
orbit number at epoch: 47476

The dashed part of the orbit path shows where the satellite is in the earth's shadow,  

DLR